AirNav   Pilot Hours Calculator
 
 714 users online  

MU67 DST Heliport
Kansas City, Missouri, USA

GOING TO KANSAS CITY?


FAA INFORMATION EFFECTIVE 31 DECEMBER 2020

Location

FAA Identifier: MU67
Lat/Long: 39-00-43.0200N 094-30-37.8330W
39-00.717000N 094-30.630550W
39.0119500,-94.5105092
(estimated)
Elevation: 722 ft. / 220 m (estimated)
Variation: 05E (1990)
Time zone: UTC -6 (UTC -5 during Daylight Saving Time)
Zip code: 64133

Heliport Operations

Heliport use: Private use. Permission required prior to landing
Activation date: 02/1994
Control tower: no
ARTCC: KANSAS CITY CENTER
FSS: COLUMBIA FLIGHT SERVICE STATION
Attendance: UNATNDD
Wind indicator: yes
Segmented circle: no

Heliport Communications

WX ASOS at LXT (7 nm SE): 124.175 (816-347-9807)
WX ASOS at MKC (8 nm NW): PHONE 816-329-2843
WX ASOS at OJC (14 nm SW): 119.35 (913-780-6969)
WX ASOS at MCI (20 nm NW): PHONE 816-329-2808

Nearby radio navigation aids

VOR radial/distance  VOR name  Freq  Var
ANXr247/18.5NAPOLEON VORTAC114.0007E
MCIr142/19.5KANSAS CITY VORTAC113.2505E

Heliport Services

Runway Information

Helipad H1

Dimensions: 30 x 30 ft. / 9 x 9 m
Surface: turf
Traffic pattern: leftleft

Heliport Ownership and Management from official FAA records

Ownership: Privately-owned
Owner: DST SYSTEMS INC
7201 E 64 ST
KANSAS CITY, MO 64153
Phone 816-737-6914
Manager: JOSEPH ALVAREZ
7201 E 64 ST
KANSAS CITY, MO 64153
Phone 816-737-4073
RUSSELL FOTOVICH 816-737-9768

Additional Remarks

OWNER DESIRES ARPT NOT BE CHARTED.
FOR CD CTC KANSAS CITY APCH AT 816-329-2710.

Instrument Procedures

There are no published instrument procedures at MU67.

Some nearby airports with instrument procedures:

KLXT - Lee's Summit Municipal Airport (7 nm SE)
KMKC - Charles B Wheeler Downtown Airport (8 nm NW)
3GV - East Kansas City Airport (14 nm E)
KOJC - Johnson County Exec Airport (14 nm SW)
KMCI - Kansas City International Airport (20 nm NW)
 
Loc | Ops | Rwys | IFR | FBO | Links
Com | Nav | Svcs | Stats | Notes
Area around MU67 (DST Heliport)
 
Road maps at: MapQuest Bing Google
 
Aerial photo
No photo
 
Sectional chart

 
Airport distance calculator
Flying to DST Heliport? Find the distance to fly.

From to MU67

Sunrise and sunset
Times for 21-Jan-2021
 Local
(UTC-6)
 Zulu
(UTC)
Morning civil twilight07:0513:05
Sunrise07:3413:34
Sunset17:2523:25
Evening civil twilight17:5423:54

Current date and time
Zulu (UTC)  22-Jan-2021 04:48:02
Local (UTC-6)  21-Jan-2021 22:48:02
 
METAR
KLXT 
7nm E 
220353Z AUTO 01012KT 10SM CLR 04/M05 A3005 RMK AO2 SLP180 T00391050
KMKC 
8nm NW 
220354Z 03005KT 10SM CLR 05/M06 A3006 RMK AO2 SLP183 T00501056
KOJC 
14nm SW 
220353Z AUTO 01008KT 10SM CLR 05/M06 A3003 RMK AO2 SLP175 T00501056
TAF
KMKC 
8nm NW 
211720Z 2118/2218 25008KT P6SM SCT150 FM212300 VRB05KT P6SM SCT100 FM221500 01008KT P6SM SCT060
NOTAMs
Click for the latest NOTAMs
NOTAMs are issued by the DoD/FAA and will open in a separate window not controlled by AirNav.

 

 
 

Would you like to see your business listed on this page?

 If your business provides an interesting product or service to pilots, flight crews, aircraft, or users of the DST Heliport, you should consider listing it here.  To start the listing process, click on the button below
 
Add a business
 

Other Pages about DST Heliport

Update a link
 
Copyright © AirNav, LLC. All rights reserved. Privacy Policy  Contact